Location: Moulis
(42.9609°N, 1.0909°E)
Time: 00:56:57
(UTC+00:00)

Okean 1 - Pass Details

Date: 11 December 2025
Orbit: 465 x 484 km, 82.5° (Epoch: 19 January)

Event Time Altitude Azimuth Distance (km) Brightness Sun altitude
Rises 18:25:52 0° 188° (S) 2,529 7.0 -22.0°
Reaches altitude 10° 18:27:57 10° 189° (S) 1,651 6.0 -22.4°
Enters shadow 18:30:46 52° 195° (SSW) 598 3.5 -22.9°
